Wind_Speed
41 40 37 38 39 37 34 36 35 35 35 34 34 33 33 32 32 31 31 30 30 30 31 31 31 32 33 35 35 35 34 33 32 29 27 27 26 25 25 26 26 26 26
42 39 38 37 37 35 35 36 37 37 37 36 36 36 35 35 34 33 33 32 31 31 32 32 33 34 35 36 37 38 37 36 35 32 30 28 28 27 26 26 26 26 26
44 43 42 40 38 38 36 37 38 39 39 39 38 37 36 36 36 35 34 33 32 32 32 33 34 35 37 38 39 39 38 37 36 35 32 29 28 27 28 27 25 25 25
45 44 43 41 39 38 37 38 40 40 40 39 37 35 36 35 35 35 34 33 32 32 32 33 34 36 37 39 40 40 40 39 38 36 34 31 30 29 28 29 28 26 26
44 43 42 41 40 37 36 36 38 39 38 36 34 34 34 33 34 33 31 31 31 31 32 34 36 38 39 39 40 41 41 40 38 36 34 32 31 30 29 29 30 29 28
44 44 43 43 41 40 38 36 34 33 32 31 31 32 32 32 32 30 30 31 32 34 35 37 38 39 39 40 40 40 40 39 37 35 34 33 33 32 32 31 30 30 30
47 46 45 44 42 41 40 38 36 33 31 30 30 31 31 31 31 31 31 33 34 36 37 38 39 39 40 39 38 38 37 37 36 34 33 32 32 31 31 31 30 30 31
50 49 47 47 47 47 45 43 41 39 35 34 34 34 33 33 33 34 35 36 37 38 39 40 40 40 39 38 36 35 35 34 33 32 32 31 31 30 31 31 30 29 30
51 52 51 48 50 49 47 46 45 43 41 39 38 37 37 37 37 37 37 39 39 40 41 41 40 38 36 34 33 33 33 33 32 31 31 31 30 30 30 31 30 29 28
52 53 54 52 51 50 49 49 49 49 46 43 40 39 39 39 39 39 40 40 41 41 40 38 36 34 33 32 31 31 30 30 30 29 29 28 28 28 27 27 27 27 25
52 53 54 53 49 49 48 48 48 48 46 43 40 39 38 38 39 40 39 38 38 37 35 34 33 32 31 30 30 29 28 27 27 27 27 27 26 26 27 27 26 25 24
50 48 48 48 46 45 42 42 43 43 43 41 39 37 36 36 37 36 35 35 34 33 33 32 32 31 31 31 30 29 28 27 27 26 26 26 26 25 25 26 26 25 24
40 38 37 35 35 36 36 36 37 38 38 37 36 35 34 34 34 34 35 34 33 33 33 33 33 32 32 31 31 31 31 30 29 29 28 27 27 26 26 25 25 25 25
32 29 28 28 28 29 30 30 32 33 34 35 34 34 34 34 34 34 34 34 34 34 34 34 35 34 34 34 34 34 33 34 33 32 32 31 30 30 29 28 28 27 26
22 22 24 24 25 26 28 29 30 31 33 34 34 34 34 34 34 34 33 33 33 34 34 35 36 36 36 36 36 36 36 36 36 36 36 35 35 34 33 32 31 31 30
18 18 19 21 22 24 26 28 30 31 32 33 33 34 34 33 33 33 33 33 33 33 34 35 35 36 36 37 37 37 38 38 38 38 38 38 38 38 37 36 36 35 34
15 17 19 21 23 25 27 28 29 30 31 31 32 32 32 32 32 32 32 33 33 33 33 34 34 35 35 36 36 37 38 38 38 38 39 39 39 39 39 39 38 38 36
15 17 19 21 23 24 26 27 28 28 28 29 29 30 30 32 32 32 31 31 32 31 31 31 32 32 33 34 35 35 36 37 37 38 38 39 38 38 38 38 38 38 38
15 16 17 18 20 21 23 24 24 24 25 25 25 26 27 27 27 27 26 26 26 26 27 27 28 30 31 32 33 34 34 35 36 36 36 36 36 36 36 37 38 38 38
16 16 16 16 17 17 18 19 20 20 20 21 21 22 22 22 22 21 20 20 21 22 23 25 27 29 30 31 32 32 32 32 32 32 33 33 34 33 33 33 34 35 36
15 15 14 14 14 14 15 15 16 16 16 17 17 16 16 16 15 15 16 17 19 20 22 24 25 27 28 29 30 30 31 31 31 31 31 30 30 30 30 31 31 32 33
14 12 11 11 11 11 12 12 12 12 12 12 12 12 12 12 12 13 15 16 18 19 21 22 24 25 26 28 29 30 31 32 32 31 31 30 30 29 29 29 29 30 30
13 11 10 10 9 9 9 9 10 10 10 10 10 10 11 11 11 13 14 15 16 18 19 21 23 25 27 29 31 31 32 32 32 32 32 31 31 31 30 30 29 29 29
13 11 10 9 7 6 6 6 7 8 8 9 9 9 9 10 11 12 13 14 15 17 19 22 24 26 28 29 30 31 31 31 31 30 30 30 31 31 31 30 30 29 28
14 12 11 9 8 7 5 5 5 6 7 8 8 9 9 9 10 11 13 14 16 18 20 23 25 26 27 27 27 28 28 28 28 27 28 28 29 29 28 29 29 29 29
16 15 13 12 10 9 8 7 7 7 7 8 9 9 10 10 11 12 13 15 17 19 21 23 25 25 25 24 24 25 25 25 25 25 25 26 27 28 29 29 30 30 30
Wind_Direction
271 269 269 272 268 262 260 262 264 262 265 270 273 277 280 283 285 287 288 289 289 289 289 291 293 294 297 299 301 302 303 303 303 303 300 295 290 283 278 277 275 273 269
271 272 276 278 271 267 264 262 262 260 264 266 269 273 277 279 281 283 284 285 285 285 285 287 289 291 293 296 297 298 299 299 298 298 294 290 286 282 277 274 271 269 269
273 273 273 273 272 272 270 267 264 263 260 261 265 269 273 275 277 278 279 281 281 281 282 284 286 288 291 293 295 295 296 296 295 294 292 286 281 278 277 273 270 267 266
273 274 273 273 272 272 270 268 267 264 262 261 261 266 270 273 275 275 276 277 279 280 282 284 286 288 290 291 292 293 293 292 292 290 288 284 279 275 272 271 270 267 264
272 273 273 273 274 273 272 267 266 262 262 263 264 270 271 273 274 273 274 276 279 282 284 287 288 289 290 290 290 290 289 289 288 286 285 282 278 274 270 268 269 267 264
269 270 272 273 273 272 271 270 268 264 265 269 271 272 272 273 273 274 276 278 281 285 287 288 289 289 289 289 289 288 287 286 286 284 282 280 276 273 271 269 267 267 265
265 267 268 270 270 270 271 272 271 273 275 276 274 274 274 273 274 275 277 279 282 284 286 288 289 289 289 290 288 287 286 286 285 283 282 280 276 271 271 270 268 266 264
264 265 267 266 267 269 270 273 274 275 276 277 276 276 275 274 276 278 279 280 282 285 287 288 288 289 289 289 287 286 286 286 285 283 282 279 276 272 270 269 270 266 263
262 264 266 267 265 265 266 269 272 273 274 275 274 273 273 273 275 277 279 281 284 285 287 287 288 288 287 287 287 287 286 285 285 284 282 280 277 275 272 270 268 264 262
262 263 265 267 267 267 266 268 269 272 272 273 273 273 272 272 273 276 279 281 284 285 286 286 287 287 286 286 287 287 288 287 285 283 280 278 277 275 274 271 268 265 262
265 265 266 269 269 271 270 268 270 268 269 271 272 274 273 272 273 275 278 280 282 284 285 285 285 286 285 285 286 286 288 288 286 283 281 279 277 276 274 271 269 267 263
265 267 265 267 269 270 269 268 268 266 267 269 270 271 271 272 273 274 276 279 281 282 283 284 284 284 284 284 283 284 284 285 286 284 282 281 280 278 276 273 270 267 263
268 267 267 268 268 267 267 266 264 263 264 266 268 269 270 271 272 274 276 278 279 280 281 282 283 283 283 283 282 282 281 281 282 282 280 280 279 277 276 274 271 268 266
273 270 266 269 267 265 264 263 261 260 261 264 266 268 269 271 272 273 275 276 277 278 279 280 281 281 282 282 282 281 280 280 280 279 278 277 277 276 274 273 272 270 268
279 275 266 265 264 261 260 258 258 259 260 263 265 267 269 270 271 272 274 275 275 276 277 278 279 280 281 282 281 281 280 280 279 278 277 276 276 275 273 273 271 270 268
279 276 269 265 261 258 256 256 257 258 260 261 263 266 268 269 270 271 273 273 274 275 276 277 279 280 281 282 282 281 281 281 280 278 277 276 276 274 273 271 270 269 266
283 278 271 266 263 260 257 255 257 258 259 260 262 263 264 267 268 270 271 273 274 275 276 278 279 280 281 282 283 283 282 282 281 279 278 277 275 274 272 270 268 267 265
288 282 276 272 268 264 260 257 257 257 258 259 259 260 261 264 267 269 271 272 274 275 277 279 281 282 283 284 284 284 284 283 282 281 279 278 276 273 271 268 266 265 262
299 291 284 279 274 268 263 260 259 258 258 258 259 259 260 264 268 270 272 274 276 277 279 282 283 285 287 288 288 288 288 287 286 284 283 281 278 275 272 269 266 263 261
310 302 297 290 283 277 271 266 261 259 258 258 260 262 264 267 270 272 275 277 279 282 284 286 289 290 292 293 293 292 291 290 289 287 285 283 281 278 275 271 268 265 261
321 314 308 299 291 285 278 271 264 260 258 256 258 262 266 268 271 274 277 279 283 287 290 293 295 296 297 298 297 295 294 292 291 288 286 284 282 280 277 274 271 268 264
332 327 320 311 301 291 282 273 265 262 260 259 259 262 266 269 272 276 282 286 290 293 295 297 299 300 300 300 299 298 296 294 292 289 286 284 282 280 278 276 274 271 267
334 331 326 319 310 300 287 273 266 261 260 261 262 265 268 273 278 283 287 291 294 296 298 301 303 303 303 302 301 299 297 295 292 290 287 284 282 281 279 276 273 272 269
324 326 327 324 319 310 297 281 269 262 259 259 262 266 271 276 281 285 289 293 297 301 304 307 308 309 308 307 305 303 300 298 295 292 288 286 283 280 276 274 271 269 267
309 312 314 313 312 308 300 289 279 270 264 263 266 270 273 276 281 287 292 298 303 307 310 313 315 315 315 314 312 310 308 305 302 297 292 289 285 279 275 271 268 266 264
296 297 297 298 298 296 292 287 281 274 270 269 271 273 276 280 285 291 296 302 307 312 315 318 320 322 322 321 321 320 317 315 311 306 300 294 288 282 277 273 269 266 263
Height
5884 5885 5885 5886 5887 5887 5888 5888 5888 5887 5887 5887 5887 5886 5886 5886 5885 5885 5884 5883 5882 5881 5880 5878 5877 5875 5874 5872 5870 5868 5866 5864 5862 5861 5859 5857 5855 5853 5852 5851 5849 5848 5848
5876 5877 5877 5879 5878 5878 5878 5879 5878 5877 5878 5878 5878 5878 5878 5878 5878 5877 5876 5876 5875 5874 5873 5871 5870 5868 5866 5864 5862 5860 5858 5856 5855 5854 5852 5851 5849 5847 5845 5844 5843 5842 5842
5868 5869 5870 5870 5870 5869 5869 5868 5868 5867 5868 5867 5867 5869 5869 5869 5869 5868 5868 5867 5867 5866 5865 5864 5862 5860 5858 5857 5854 5852 5850 5849 5846 5845 5844 5843 5842 5840 5839 5837 5836 5836 5835
5858 5859 5859 5859 5860 5860 5860 5860 5858 5858 5856 5857 5858 5858 5859 5860 5859 5859 5859 5859 5858 5858 5857 5855 5854 5852 5850 5848 5846 5844 5841 5840 5838 5836 5835 5834 5833 5832 5832 5830 5829 5829 5828
5849 5849 5849 5849 5849 5849 5849 5848 5847 5847 5847 5847 5848 5849 5850 5850 5850 5850 5850 5850 5850 5849 5848 5847 5845 5843 5841 5839 5837 5834 5832 5830 5829 5827 5826 5825 5824 5823 5823 5823 5822 5822 5821
5840 5840 5839 5839 5838 5838 5838 5836 5836 5837 5838 5839 5840 5841 5842 5842 5842 5842 5842 5842 5842 5841 5840 5838 5836 5834 5832 5830 5827 5825 5823 5821 5819 5818 5817 5816 5815 5814 5813 5814 5814 5814 5813
5831 5830 5829 5828 5827 5826 5827 5827 5828 5829 5830 5831 5832 5833 5833 5834 5834 5834 5835 5834 5834 5833 5831 5829 5827 5825 5823 5820 5818 5816 5814 5812 5810 5809 5808 5807 5806 5805 5804 5804 5805 5805 5805
5820 5818 5817 5817 5817 5817 5818 5819 5819 5820 5822 5823 5824 5825 5826 5826 5826 5826 5826 5826 5825 5823 5822 5820 5818 5816 5813 5811 5809 5807 5805 5803 5802 5800 5799 5798 5797 5797 5796 5796 5796 5796 5796
5808 5806 5804 5803 5805 5806 5807 5809 5810 5811 5813 5814 5815 5816 5816 5817 5817 5817 5817 5816 5815 5814 5812 5810 5808 5806 5804 5802 5800 5799 5797 5795 5794 5792 5791 5790 5789 5789 5788 5788 5788 5789 5789
5796 5794 5793 5792 5794 5795 5797 5798 5799 5801 5803 5804 5804 5805 5806 5807 5807 5807 5807 5806 5805 5803 5802 5800 5799 5797 5796 5794 5792 5791 5789 5787 5786 5784 5784 5783 5782 5781 5781 5780 5780 5780 5781
5783 5782 5782 5782 5783 5784 5785 5787 5788 5790 5791 5792 5793 5794 5795 5796 5796 5796 5796 5796 5795 5794 5792 5791 5790 5789 5788 5786 5785 5784 5782 5780 5779 5777 5776 5775 5775 5774 5774 5773 5773 5773 5773
5771 5769 5770 5771 5772 5773 5774 5776 5777 5779 5780 5782 5783 5784 5785 5786 5786 5786 5786 5786 5785 5785 5784 5783 5782 5781 5780 5779 5778 5776 5775 5774 5772 5771 5770 5769 5768 5767 5767 5766 5766 5766 5767
5759 5759 5760 5761 5762 5763 5765 5766 5767 5769 5770 5771 5773 5773 5774 5775 5776 5777 5777 5777 5777 5776 5775 5775 5774 5773 5772 5771 5770 5769 5768 5766 5765 5764 5763 5762 5761 5760 5760 5760 5759 5759 5759
5749 5749 5750 5752 5752 5754 5755 5757 5758 5760 5761 5762 5763 5764 5765 5766 5767 5767 5768 5767 5767 5767 5767 5766 5765 5764 5763 5762 5761 5760 5759 5758 5757 5756 5755 5754 5753 5752 5752 5752 5752 5752 5752
5741 5741 5742 5743 5744 5745 5746 5748 5749 5750 5751 5752 5753 5754 5755 5756 5757 5758 5758 5758 5758 5758 5758 5757 5756 5755 5754 5753 5752 5751 5750 5749 5747 5746 5745 5744 5743 5743 5743 5743 5743 5744 5744
5735 5735 5735 5735 5736 5736 5738 5739 5740 5741 5742 5743 5744 5745 5746 5747 5748 5748 5748 5749 5749 5749 5748 5748 5747 5746 5745 5744 5742 5741 5740 5738 5737 5736 5734 5733 5733 5732 5732 5732 5733 5734 5734
5729 5728 5728 5728 5728 5728 5729 5730 5730 5731 5732 5733 5735 5735 5736 5737 5738 5739 5739 5739 5739 5739 5739 5738 5737 5736 5735 5734 5732 5731 5729 5727 5726 5724 5723 5722 5721 5720 5720 5720 5721 5722 5723
5723 5722 5721 5721 5720 5720 5720 5721 5722 5723 5724 5724 5726 5727 5727 5728 5729 5730 5730 5730 5730 5730 5730 5729 5728 5727 5725 5724 5722 5721 5719 5717 5715 5713 5711 5710 5709 5708 5708 5708 5708 5709 5711
5719 5717 5716 5714 5713 5713 5713 5713 5714 5715 5716 5717 5718 5719 5719 5720 5721 5721 5721 5722 5722 5722 5721 5721 5719 5718 5716 5714 5712 5710 5708 5706 5704 5702 5700 5698 5697 5696 5696 5696 5696 5697 5698
5715 5713 5711 5709 5708 5708 5707 5707 5707 5708 5709 5710 5711 5712 5712 5713 5714 5714 5715 5715 5715 5715 5714 5713 5711 5709 5707 5705 5703 5701 5699 5696 5694 5692 5690 5688 5686 5685 5684 5684 5684 5684 5685
5712 5709 5707 5706 5704 5703 5703 5703 5703 5704 5705 5705 5706 5706 5707 5708 5708 5709 5709 5709 5709 5708 5707 5705 5704 5701 5699 5696 5694 5692 5689 5687 5685 5682 5680 5678 5677 5675 5674 5673 5673 5673 5673
5710 5707 5705 5703 5701 5700 5700 5699 5700 5700 5700 5701 5702 5702 5703 5703 5704 5704 5704 5704 5703 5702 5701 5699 5697 5694 5691 5689 5686 5683 5680 5678 5675 5673 5671 5669 5667 5666 5665 5664 5663 5663 5663
5708 5706 5703 5701 5700 5698 5697 5697 5697 5697 5697 5698 5699 5699 5700 5700 5700 5700 5699 5699 5698 5697 5695 5693 5690 5687 5684 5681 5678 5674 5671 5668 5665 5663 5661 5659 5658 5656 5655 5654 5654 5653 5654
5707 5704 5702 5700 5698 5696 5695 5695 5694 5694 5695 5695 5696 5696 5696 5696 5695 5695 5695 5694 5693 5691 5689 5686 5683 5680 5677 5673 5669 5666 5662 5659 5656 5653 5651 5649 5648 5646 5645 5644 5644 5644 5644
5704 5702 5700 5698 5697 5695 5694 5693 5692 5692 5692 5692 5692 5692 5692 5692 5691 5691 5690 5689 5687 5685 5683 5680 5677 5673 5670 5666 5662 5658 5654 5651 5647 5644 5642 5640 5638 5636 5635 5634 5634 5634 5634
5700 5699 5697 5696 5694 5693 5692 5691 5690 5690 5689 5689 5689 5688 5688 5688 5687 5686 5685 5684 5682 5680 5677 5674 5671 5667 5663 5659 5655 5651 5647 5644 5640 5637 5634 5631 5628 5627 5625 5624 5623 5623 5624